Location: Bridgewater
(44.3670°N, 64.5170°W)
Time: 21:38:34
(UTC-04:00)

Amateur Radio Satellites - All Passes

Search period start: 24 November 2014 21:08
Search period end: 25 November 2014 21:08
Location: Bridgewater, 44.3670°N, 64.5170°W

Satellite Date Start Highest point End Downlink Frequencies (MHz)
Time Altitude Azimuth
PHONESAT 2.4 24 Nov 21:09:04 21:10:45 13° 210° (SSW) 21:12:26 2401.200-2431.200
CANX-2 24 Nov 21:11:02 21:14:41 28° 265° (W) 21:18:22 2200.000
BRITE-PL 24 Nov 21:11:56 21:16:34 36° 263° (W) 21:20:54 437.365/2234.400
DELFI C3 24 Nov 21:17:16 21:21:20 90° 247° (WSW) 21:25:27 145.870
COMPASS 1 24 Nov 21:19:09 21:22:55 33° 263° (W) 21:26:44 437.405
ESTCUBE 1 24 Nov 21:20:50 21:23:28 15° 61° (ENE) 21:26:07 437.505/2401.250
50 SAT 24 Nov 21:23:55 21:27:21 27° 68° (ENE) 21:30:47 437.505
HUMSAT D 24 Nov 21:24:43 21:28:27 34° 70° (ENE) 21:32:11 437.325/437.525
VELOX 1 24 Nov 21:25:47 21:29:58 40° 70° (ENE) 21:34:09 145.980
ZACube-1 24 Nov 21:29:46 21:33:56 63° 74° (ENE) 21:38:05 437.345
BEESAT 3 24 Nov 21:39:48 21:43:42 40° 311° (NW) 21:47:40 437.485
GONETS M04 24 Nov 21:40:34 21:46:58 23° 282° (WNW) 21:53:21
CUTE 1.7 & AOD 2 24 Nov 21:47:46 21:49:53 14° 270° (W) 21:52:00 437.475
AISAT 24 Nov 21:50:46 21:55:15 73° 74° (ENE) 21:59:44 437.250
BEESAT 2 24 Nov 21:54:12 21:57:59 33° 313° (NW) 22:01:49 435.950
DOVE 4 24 Nov 21:54:46 21:58:25 23° 266° (W) 22:01:56 437.250
TIGRISAT 24 Nov 22:01:55 22:04:50 17° 92° (E) 22:07:47 435.000
UKube-1 24 Nov 22:05:20 22:09:00 26° 264° (W) 22:12:42 .
FUNcube-1 24 Nov 22:05:21 22:09:29 53° 260° (W) 22:13:34 145.935
CUBEBUG 1 24 Nov 22:09:31 22:13:41 41° 70° (ENE) 22:17:52 437.445
NANOSAT C BR1 24 Nov 22:10:49 22:13:02 14° 90° (E) 22:15:16 145.865
UNISAT 6 24 Nov 22:14:14 22:17:48 23° 94° (E) 22:21:25 437.425
Oscar 11 24 Nov 22:18:39 22:21:38 18° 268° (W) 22:24:39 145.826/435.025
QB50P1 24 Nov 22:19:58 22:22:51 18° 92° (E) 22:25:42 145.935-145.965
HO-68 24 Nov 22:20:55 22:24:31 14° 273° (W) 22:28:08 435.675
AIST 2 24 Nov 22:21:58 22:25:53 35° 313° (NW) 22:29:52 435.215
CUBEBUG 2 24 Nov 22:25:20 22:28:51 25° 265° (W) 22:32:20 437.445
UWE-3 24 Nov 22:28:32 22:32:06 26° 265° (W) 22:35:38 435.000/436.395/437.385
BUGSAT 1 24 Nov 22:38:02 22:41:15 22° 94° (E) 22:44:25 437.445
DX 1 24 Nov 22:41:55 22:43:29 12° 271° (W) 22:45:03 434.975-435.025
ANTELSAT 24 Nov 22:42:19 22:46:35 45° 99° (E) 22:50:55 437.575/2403.000
PCSat 24 Nov 22:42:27 22:45:16 14° 327° (NNW) 22:48:05 145.827
POPSAT HIP 1 24 Nov 22:43:53 22:47:40 31° 97° (E) 22:51:25 437.405
CINEMA 3 24 Nov 22:43:59 22:45:22 11° 271° (W) 22:46:44 145.822/145.860
ESTCUBE 1 24 Nov 22:55:19 22:59:50 65° 258° (WSW) 23:04:24 437.505/2401.250
50 SAT 24 Nov 22:59:16 23:02:38 25° 265° (W) 23:06:01 437.505
HUMSAT D 24 Nov 23:01:09 23:04:21 21° 266° (W) 23:07:33 437.325/437.525
VELOX 1 24 Nov 23:03:15 23:06:42 22° 266° (W) 23:10:09 145.980
RS-15 24 Nov 23:03:46 23:13:37 34° 27° (NNE) 23:23:44 29.354- 29.394
ZACube-1 24 Nov 23:09:08 23:10:45 12° 270° (W) 23:12:21 437.345
POLYITAN 1 24 Nov 23:16:15 23:20:29 73° 102° (ESE) 23:24:42 437.675
QB50P2 24 Nov 23:18:51 23:23:07 78° 103° (ESE) 23:27:20 145.880/145.840
DUCHIFAT 1 24 Nov 23:25:52 23:30:07 89° 286° (WNW) 23:34:19 145.980
AISAT 24 Nov 23:30:47 23:32:23 12° 271° (W) 23:34:00 437.250
TISAT 1 24 Nov 23:33:44 23:38:01 85° 76° (ENE) 23:42:18 437.305
TIGRISAT 24 Nov 23:37:36 23:41:51 49° 288° (WNW) 23:46:10 435.000
SPROUT 24 Nov 23:39:07 23:43:26 84° 76° (ENE) 23:47:47 437.525
AUBIESAT-1 24 Nov 23:41:42 23:45:23 33° 62° (ENE) 23:49:22 437.475
ITUPSAT 1 24 Nov 23:42:55 23:46:19 20° 62° (ENE) 23:49:44 437.325
NANOSAT C BR1 24 Nov 23:45:09 23:49:17 55° 287° (WNW) 23:53:24 145.865
M-CUBED/EXP-1 PRIME 24 Nov 23:45:47 23:49:35 39° 63° (ENE) 23:53:43 437.505
CUBEBUG 1 24 Nov 23:46:54 23:50:14 21° 267° (W) 23:53:34 437.445
ISS 24 Nov 23:48:31 23:51:23 28° 138° (SE) 23:54:16 145.825
UNISAT 6 24 Nov 23:50:39 23:54:41 36° 290° (WNW) 23:58:48 437.425
CUSAT 1 24 Nov 23:51:45 23:56:03 58° 79° (ENE) 00:01:52 437.405
SWISSCUBE 24 Nov 23:53:44 23:57:42 26° 65° (ENE) 00:01:41 437.505
QB50P1 24 Nov 23:54:57 23:58:58 43° 289° (WNW) 00:02:57 145.935-145.965
DANDE 25 Nov 00:11:29 00:15:41 75° 80° (E) 00:21:26 436.750
BUGSAT 1 25 Nov 00:13:09 00:16:50 32° 291° (WNW) 00:20:27 437.445
ANTELSAT 25 Nov 00:19:55 00:23:06 20° 296° (WNW) 00:26:21 437.575/2403.000
POPSAT HIP 1 25 Nov 00:20:01 00:23:27 25° 293° (WNW) 00:26:53 437.405
BEESAT 25 Nov 00:24:23 00:28:57 46° 70° (ENE) 00:33:33 436.000
POLYITAN 1 25 Nov 00:54:11 00:55:53 12° 300° (WNW) 00:57:34 437.675
QB50P2 25 Nov 00:57:00 00:58:25 12° 300° (WNW) 00:59:50 145.880/145.840
YUBILEINY 25 Nov 01:03:19 01:08:12 16° 74° (ENE) 01:13:04 435.215
KKS-1 25 Nov 01:13:12 01:17:06 31° 67° (ENE) 01:21:00 437.445
RS-15 25 Nov 01:16:32 01:27:48 84° 55° (NE) 01:39:33 29.354- 29.394
AUBIESAT-1 25 Nov 01:17:04 01:20:26 25° 262° (W) 01:24:05 437.475
ITUPSAT 1 25 Nov 01:19:06 01:23:49 54° 260° (W) 01:28:34 437.325
MaSat-1 25 Nov 01:21:13 01:23:17 29° 247° (WSW) 01:25:25 437.345
M-CUBED/EXP-1 PRIME 25 Nov 01:21:44 01:24:50 21° 263° (W) 01:28:09 437.505
ISS 25 Nov 01:24:44 01:27:56 47° 336° (NNW) 01:31:08 145.825
Oscar 19 25 Nov 01:28:14 01:33:08 42° 98° (E) 01:38:01 437.125/150
SWISSCUBE 25 Nov 01:30:55 01:35:23 38° 262° (W) 01:39:54 437.505
CUSAT 1 25 Nov 01:36:10 01:39:07 17° 268° (W) 01:42:32 437.405
DANDE 25 Nov 01:57:23 01:59:04 12° 269° (W) 02:00:53 436.750
BEESAT 25 Nov 02:03:25 02:07:01 21° 267° (W) 02:10:39 436.000
STARS 25 Nov 02:11:07 02:15:31 82° 75° (ENE) 02:19:57 437.465
ITAMSAT 1 25 Nov 02:18:23 02:23:24 47° 99° (E) 02:28:22 435.822/435.867
HORYU 2 25 Nov 02:21:03 02:22:30 11° 89° (E) 02:23:58 437.375
Gurwin Techsat 1B 25 Nov 02:43:03 02:48:12 47° 99° (E) 02:53:18 435.225
KKS-1 25 Nov 02:49:54 02:53:44 28° 264° (W) 02:57:34 437.445
YUBILEINY 25 Nov 02:54:42 03:03:30 79° 95° (E) 03:12:17 435.215
ISS 25 Nov 03:02:26 03:05:08 23° 356° (N) 03:07:49 145.825
Oscar 19 25 Nov 03:08:00 03:12:16 27° 296° (WNW) 03:16:33 437.125/150
SO-50 25 Nov 03:14:45 03:17:49 18° 110° (ESE) 03:20:57 436.795
RS-15 25 Nov 03:30:01 03:38:58 29° 257° (WSW) 03:48:15 29.354- 29.394
MOZHAYETS 4 25 Nov 03:45:10 03:49:17 34° 68° (ENE) 03:53:27
HORYU 2 25 Nov 03:55:13 03:59:43 76° 286° (WNW) 04:04:12 437.375
ITAMSAT 1 25 Nov 03:58:29 04:02:36 25° 297° (WNW) 04:06:42 435.822/435.867
PCSat 25 Nov 03:58:36 04:03:20 29° 46° (NE) 04:08:02 145.827
BEESAT 3 25 Nov 04:20:15 04:23:55 28° 45° (NE) 04:27:32 437.485
Gurwin Techsat 1B 25 Nov 04:23:36 04:27:53 25° 297° (WNW) 04:32:08 435.225
AO-7 25 Nov 04:25:31 04:33:46 58° 103° (ESE) 04:41:58 29.400- 29.500
BEESAT 2 25 Nov 04:34:36 04:38:28 33° 47° (NE) 04:42:17 435.950
ISS 25 Nov 04:39:29 04:42:28 30° 16° (NNE) 04:45:26 145.825
JAS-2 25 Nov 04:47:26 04:53:46 33° 92° (E) 04:59:26 435.910
SO-50 25 Nov 04:53:25 04:57:54 58° 309° (NW) 05:02:32 436.795
YUBILEINY 25 Nov 04:54:25 05:01:19 25° 297° (WNW) 05:08:14 435.215
AIST 2 25 Nov 05:03:50 05:07:48 34° 47° (NE) 05:11:42 435.215
PRISM 25 Nov 05:22:15 05:26:26 69° 74° (ENE) 05:30:40 437.425
MOZHAYETS 4 25 Nov 05:22:41 05:26:33 27° 266° (W) 05:30:28
CUBESAT XI-V 25 Nov 05:23:26 05:27:26 28° 67° (ENE) 05:31:27 437.345
STRAND 1 25 Nov 05:26:23 05:30:56 32° 66° (ENE) 05:35:28 437.568
CUTE-I 25 Nov 05:31:02 05:34:28 17° 90° (E) 05:37:52 437.470
AIST 1 25 Nov 05:36:10 05:36:56 10° 64° (ENE) 05:37:42
PCSat 25 Nov 05:41:45 05:47:00 51° 245° (WSW) 05:52:13 145.827
BEESAT 3 25 Nov 05:58:21 06:02:13 36° 243° (WSW) 06:06:01 437.485
O/OREOS (USA 219) 25 Nov 06:10:01 06:14:23 52° 109° (ESE) 06:18:45 437.305
BEESAT 2 25 Nov 06:13:02 06:16:42 29° 245° (WSW) 06:20:18 435.950
ISS 25 Nov 06:16:02 06:19:18 63° 215° (SW) 06:22:34 145.825
AO-7 25 Nov 06:18:48 06:26:12 37° 303° (WNW) 06:33:37 29.400- 29.500
Cubesat XI-IV 25 Nov 06:27:59 06:33:14 56° 101° (E) 06:38:26 437.490
JAS-2 25 Nov 06:32:07 06:39:04 50° 293° (WNW) 06:45:14 435.910
SO-50 25 Nov 06:37:11 06:39:29 13° 331° (NNW) 06:41:49 436.795
AIST 2 25 Nov 06:42:36 06:46:22 30° 245° (WSW) 06:50:04 435.215
GONETS M04 25 Nov 06:52:31 06:58:00 19° 76° (ENE) 07:03:29
CUBESAT XI-V 25 Nov 07:00:28 07:04:46 34° 264° (W) 07:09:05 437.345
PRISM 25 Nov 07:01:11 07:02:28 11° 271° (W) 07:03:45 437.425
STRAND 1 25 Nov 07:05:24 07:10:03 34° 263° (W) 07:14:44 437.568
CUTE-I 25 Nov 07:09:44 07:15:01 66° 288° (WNW) 07:20:16 437.470
AIST 1 25 Nov 07:10:50 07:15:15 82° 263° (W) 07:19:36
O/OREOS (USA 219) 25 Nov 07:50:52 07:54:06 19° 308° (NW) 07:57:20 437.305
HO-68 25 Nov 07:55:59 08:00:39 18° 89° (E) 08:05:18 435.675
Cubesat XI-IV 25 Nov 08:08:54 08:12:55 22° 299° (WNW) 08:16:56 437.490
JAS-2 25 Nov 08:20:32 08:22:14 11° 315° (NW) 08:23:54 435.910
SEEDS 25 Nov 08:28:35 08:31:34 18° 92° (E) 08:34:31 437.485
GONETS M04 25 Nov 08:44:38 08:53:27 86° 96° (E) 09:02:21
AAUSAT CUBESAT 2 25 Nov 08:47:11 08:50:28 21° 93° (E) 08:53:44 437.432
GOMX 1 25 Nov 08:51:26 08:54:50 24° 95° (E) 08:58:17 467.674
DX 1 25 Nov 08:52:13 08:53:05 11° 89° (E) 08:53:56 434.975-435.025
CUTE-I 25 Nov 08:53:09 08:54:05 10° 307° (NW) 08:55:00 437.470
CANX-2 25 Nov 08:54:25 08:58:31 42° 98° (E) 09:02:36 2200.000
CINEMA 3 25 Nov 08:58:10 09:00:16 13° 91° (E) 09:02:24 145.822/145.860
DELFI C3 25 Nov 08:58:40 09:00:16 12° 89° (E) 09:01:52 145.870
COMPASS 1 25 Nov 09:01:21 09:05:15 34° 97° (E) 09:09:07 437.405
TIGRISAT 25 Nov 09:03:05 09:06:03 19° 64° (ENE) 09:09:01 435.000
NANOSAT C BR1 25 Nov 09:05:58 09:08:20 15° 62° (ENE) 09:10:42 145.865
BRITE-PL 25 Nov 09:14:44 09:18:51 60° 101° (E) 09:22:58 437.365/2234.400
QB50P1 25 Nov 09:15:06 09:18:00 18° 64° (ENE) 09:20:54 145.935-145.965
UNISAT 6 25 Nov 09:15:34 09:19:04 25° 67° (ENE) 09:22:34 437.425
ZACube-1 25 Nov 09:19:43 09:20:30 10° 89° (E) 09:21:18 437.345
CUTE 1.7 & AOD 2 25 Nov 09:29:06 09:33:24 88° 284° (WNW) 09:37:42 437.475
BUGSAT 1 25 Nov 09:30:16 09:33:30 22° 65° (ENE) 09:36:44 437.445
POPSAT HIP 1 25 Nov 09:38:47 09:42:31 31° 68° (ENE) 09:46:15 437.405
HO-68 25 Nov 09:42:00 09:49:14 87° 288° (WNW) 09:56:24 435.675
AISAT 25 Nov 09:42:32 09:44:25 12° 89° (E) 09:46:16 437.250
ANTELSAT 25 Nov 09:43:29 09:47:35 48° 72° (ENE) 09:51:43 437.575/2403.000
UKube-1 25 Nov 09:50:57 09:55:07 44° 99° (E) 09:59:16 .
DOVE 4 25 Nov 09:51:01 09:55:12 82° 103° (ESE) 09:59:28 437.250
FUNcube-1 25 Nov 09:52:44 09:56:12 24° 95° (E) 09:59:43 145.935
Oscar 11 25 Nov 10:02:49 10:07:11 72° 102° (ESE) 10:11:31 145.826/435.025
SEEDS 25 Nov 10:03:33 10:07:36 43° 289° (WNW) 10:11:39 437.485
POLYITAN 1 25 Nov 10:11:11 10:15:25 69° 74° (ENE) 10:19:40 437.675
QB50P2 25 Nov 10:13:33 10:17:48 73° 74° (ENE) 10:22:04 145.880/145.840
CUBEBUG 2 25 Nov 10:13:54 10:18:04 56° 101° (E) 10:22:19 437.445
UWE-3 25 Nov 10:16:04 10:20:12 51° 100° (E) 10:24:24 435.000/436.395/437.385
DUCHIFAT 1 25 Nov 10:20:12 10:24:27 84° 76° (ENE) 10:28:44 145.980
AAUSAT CUBESAT 2 25 Nov 10:22:22 10:26:15 36° 290° (WNW) 10:30:07 437.432
DX 1 25 Nov 10:25:30 10:29:52 77° 286° (WNW) 10:34:11 434.975-435.025
GOMX 1 25 Nov 10:29:24 10:33:01 29° 291° (WNW) 10:36:40 467.674
CANX-2 25 Nov 10:31:05 10:34:11 20° 295° (WNW) 10:37:16 2200.000
DELFI C3 25 Nov 10:31:53 10:36:00 62° 286° (WNW) 10:40:05 145.870
CINEMA 3 25 Nov 10:33:44 10:37:50 56° 287° (WNW) 10:42:03 145.822/145.860
COMPASS 1 25 Nov 10:37:27 10:40:49 23° 294° (WNW) 10:44:11 437.405
50 SAT 25 Nov 10:38:02 10:41:50 37° 98° (E) 10:45:38 437.505
TIGRISAT 25 Nov 10:38:27 10:42:31 43° 261° (W) 10:46:36 435.000
NANOSAT C BR1 25 Nov 10:39:34 10:43:46 59° 259° (W) 10:47:59 145.865
HUMSAT D 25 Nov 10:43:05 10:47:10 52° 100° (E) 10:51:16 437.325/437.525
GONETS M04 25 Nov 10:44:53 10:51:29 23° 299° (WNW) 10:58:09
ESTCUBE 1 25 Nov 10:47:17 10:50:57 24° 94° (E) 10:54:35 437.505/2401.250
QB50P1 25 Nov 10:49:29 10:53:35 46° 261° (W) 10:57:42 145.935-145.965
VELOX 1 25 Nov 10:51:21 10:55:46 64° 102° (ESE) 11:00:08 145.980
UNISAT 6 25 Nov 10:51:58 10:55:46 31° 264° (W) 10:59:35 437.425
ZACube-1 25 Nov 10:53:09 10:57:22 74° 285° (WNW) 11:01:39 437.345
BRITE-PL 25 Nov 10:54:58 10:56:55 13° 298° (WNW) 10:58:52 437.365/2234.400
BUGSAT 1 25 Nov 11:04:50 11:08:48 37° 262° (W) 11:12:46 437.445
Oscar 19 25 Nov 11:12:13 11:13:21 11° 55° (NE) 11:14:29 437.125/150
POPSAT HIP 1 25 Nov 11:14:53 11:18:26 25° 265° (W) 11:22:00 437.405
AISAT 25 Nov 11:17:07 11:21:31 67° 286° (WNW) 11:25:54 437.250
TISAT 1 25 Nov 11:19:28 11:21:08 12° 89° (E) 11:22:47 437.305
ANTELSAT 25 Nov 11:22:03 11:24:41 16° 269° (W) 11:27:21 437.575/2403.000
SPROUT 25 Nov 11:26:16 11:28:18 13° 90° (E) 11:30:19 437.525
UKube-1 25 Nov 11:27:53 11:30:59 20° 297° (WNW) 11:34:05 .
FUNcube-1 25 Nov 11:28:52 11:32:36 31° 291° (WNW) 11:36:23 145.935
HO-68 25 Nov 11:31:07 11:35:59 20° 308° (NW) 11:40:49 435.675
DOVE 4 25 Nov 11:31:45 11:32:24 10° 300° (WNW) 11:33:02 437.250
CUBEBUG 1 25 Nov 11:33:11 11:37:34 67° 102° (ESE) 11:41:52 437.445
Oscar 11 25 Nov 11:40:48 11:42:47 13° 299° (WNW) 11:44:46 145.826/435.025
SO-50 25 Nov 11:43:09 11:47:30 32° 44° (NE) 11:51:53 436.795
POLYITAN 1 25 Nov 11:50:27 11:51:51 11° 271° (W) 11:53:15 437.675
CUBEBUG 2 25 Nov 11:51:57 11:54:23 15° 297° (WNW) 11:56:51 437.445
QB50P2 25 Nov 11:53:14 11:54:14 11° 271° (W) 11:55:14 145.880/145.840
UWE-3 25 Nov 11:53:45 11:56:24 16° 296° (WNW) 11:59:04 435.000/436.395/437.385
ITAMSAT 1 25 Nov 12:02:07 12:04:27 13° 56° (NE) 12:06:47 435.822/435.867
50 SAT 25 Nov 12:13:58 12:16:55 20° 295° (WNW) 12:19:53 437.505
HUMSAT D 25 Nov 12:20:07 12:22:36 16° 297° (WNW) 12:25:06 437.325/437.525
ESTCUBE 1 25 Nov 12:23:45 12:27:56 37° 291° (WNW) 12:32:05 437.505/2401.250
BEESAT 25 Nov 12:26:32 12:26:59 10° 87° (E) 12:27:25 436.000
Gurwin Techsat 1B 25 Nov 12:29:22 12:31:54 14° 57° (ENE) 12:34:25 435.225
VELOX 1 25 Nov 12:29:24 12:31:51 15° 299° (WNW) 12:34:17 145.980
Oscar 19 25 Nov 12:46:41 12:51:46 72° 73° (ENE) 12:56:53 437.125/150
TISAT 1 25 Nov 12:53:13 12:57:24 63° 286° (WNW) 13:01:33 437.305
AUBIESAT-1 25 Nov 12:57:36 13:01:37 25° 98° (E) 13:05:34 437.475
SPROUT 25 Nov 13:00:34 13:04:48 60° 287° (WNW) 13:09:00 437.525
M-CUBED/EXP-1 PRIME 25 Nov 13:02:04 13:06:23 30° 100° (E) 13:10:37 437.505
YUBILEINY 25 Nov 13:03:09 13:11:21 43° 71° (ENE) 13:19:28 435.215
CUSAT 1 25 Nov 13:08:16 13:10:54 52° 98° (E) 13:13:27 437.405
CUBEBUG 1 25 Nov 13:11:10 13:13:24 14° 299° (WNW) 13:15:37 437.445
ITUPSAT 1 25 Nov 13:18:25 13:22:49 34° 97° (E) 13:27:10 437.325
HORYU 2 25 Nov 13:21:15 13:23:38 14° 60° (ENE) 13:26:02 437.375
SO-50 25 Nov 13:23:35 13:28:11 42° 242° (WSW) 13:32:47 436.795
SWISSCUBE 25 Nov 13:29:31 13:34:11 48° 100° (E) 13:38:47 437.505
DANDE 25 Nov 13:30:42 13:33:29 81° 280° (W) 13:36:06 436.750
AO-7 25 Nov 13:36:40 13:42:39 23° 49° (NE) 13:48:38 29.400- 29.500
ITAMSAT 1 25 Nov 13:37:55 13:43:08 84° 74° (ENE) 13:48:23 435.822/435.867
BEESAT 25 Nov 14:00:40 14:05:31 89° 105° (ESE) 14:10:18 436.000
STARS 25 Nov 14:01:22 14:03:35 14° 90° (E) 14:05:47 437.465
Gurwin Techsat 1B 25 Nov 14:05:44 14:11:04 86° 74° (ENE) 14:16:25 435.225
VERMONT LUNAR 25 Nov 14:17:18 14:18:51 12° 150° (SSE) 14:20:24 437.305
Oscar 19 25 Nov 14:28:49 14:31:38 15° 271° (W) 14:34:29 437.125/150
AUBIESAT-1 25 Nov 14:32:04 14:36:44 45° 295° (WNW) 14:41:20 437.475
M-CUBED/EXP-1 PRIME 25 Nov 14:36:53 14:41:26 38° 297° (WNW) 14:45:56 437.505
KKS-1 25 Nov 14:38:53 14:43:13 49° 100° (E) 14:47:30 437.445
O/OREOS (USA 219) 25 Nov 14:39:56 14:42:55 17° 51° (NE) 14:45:53 437.305
MaSat-1 25 Nov 14:51:28 14:53:38 19° 111° (ESE) 14:55:42 437.345
HORYU 2 25 Nov 14:55:24 14:59:47 66° 258° (WSW) 15:04:14 437.375
ITUPSAT 1 25 Nov 14:56:29 15:00:36 29° 294° (WNW) 15:04:42 437.325
YUBILEINY 25 Nov 15:00:05 15:08:11 46° 273° (W) 15:16:15 435.215
JAS-2 25 Nov 15:00:56 15:06:37 23° 55° (NE) 15:12:20 435.910
SWISSCUBE 25 Nov 15:08:07 15:11:43 21° 297° (WNW) 15:15:18 437.505
ITAMSAT 1 25 Nov 15:21:01 15:23:17 13° 272° (W) 15:25:33 435.822/435.867
AO-7 25 Nov 15:26:01 15:34:19 85° 70° (ENE) 15:42:41 29.400- 29.500
STARS 25 Nov 15:36:08 15:40:29 61° 287° (WNW) 15:44:48 437.465
PHONESAT 2.4 25 Nov 15:39:54 15:43:01 26° 160° (SSE) 15:46:09 2401.200-2431.200
BEESAT 25 Nov 15:40:40 15:42:38 13° 302° (WNW) 15:44:36 436.000
RS-15 25 Nov 15:42:28 15:52:35 45° 110° (ESE) 16:02:38 29.354- 29.394
Gurwin Techsat 1B 25 Nov 15:49:25 15:51:43 13° 272° (W) 15:54:01 435.225
VERMONT LUNAR 25 Nov 15:53:24 15:56:42 33° 166° (SSE) 16:00:00 437.305
Cubesat XI-IV 25 Nov 16:14:21 16:17:39 17° 58° (ENE) 16:20:56 437.490
KKS-1 25 Nov 16:16:27 16:19:30 19° 297° (WNW) 16:22:33 437.445
O/OREOS (USA 219) 25 Nov 16:18:19 16:22:44 60° 250° (WSW) 16:27:08 437.305
MaSat-1 25 Nov 16:26:00 16:28:07 19° 304° (NW) 16:30:08 437.345
JAS-2 25 Nov 16:42:57 16:50:37 89° 75° (ENE) 16:58:33 435.910
CUTE-I 25 Nov 16:54:04 16:58:51 34° 66° (ENE) 17:03:38 437.470
MOZHAYETS 4 25 Nov 17:15:23 17:20:03 65° 101° (E) 17:24:40
PHONESAT 2.4 25 Nov 17:17:51 17:21:25 45° 176° (S) 17:25:00 2401.200-2431.200
AO-7 25 Nov 17:22:06 17:28:03 21° 269° (W) 17:34:04 29.400- 29.500
VERMONT LUNAR 25 Nov 17:31:23 17:34:52 45° 183° (S) 17:38:21 437.305
Cubesat XI-IV 25 Nov 17:51:43 17:57:06 78° 256° (WSW) 18:02:30 437.490
RS-15 25 Nov 17:53:51 18:04:36 60° 314° (NW) 18:15:29 29.354- 29.394
HO-68 25 Nov 18:27:26 18:32:08 19° 52° (NE) 18:36:50 435.675
JAS-2 25 Nov 18:31:11 18:36:32 20° 274° (W) 18:42:02 435.910
CUTE-I 25 Nov 18:34:01 18:38:52 35° 263° (W) 18:43:45 437.470
PRISM 25 Nov 18:39:27 18:43:43 87° 285° (WNW) 18:47:57 437.425
PCSat 25 Nov 18:44:03 18:47:16 16° 104° (ESE) 18:50:29 145.827
BRITE-PL 25 Nov 18:52:28 18:53:54 11° 60° (ENE) 18:55:18 437.365/2234.400
GONETS M04 25 Nov 18:53:07 19:01:37 48° 73° (ENE) 19:09:59
MOZHAYETS 4 25 Nov 18:54:00 18:56:45 16° 299° (WNW) 18:59:31
CUBESAT XI-V 25 Nov 18:55:19 18:59:55 53° 100° (E) 19:04:26 437.345
PHONESAT 2.4 25 Nov 18:56:29 18:59:55 35° 194° (SSW) 19:03:20 2401.200-2431.200
VERMONT LUNAR 25 Nov 19:09:53 19:12:59 26° 199° (SSW) 19:16:03 437.305
STRAND 1 25 Nov 19:13:41 19:18:48 72° 103° (ESE) 19:23:53 437.568
SEEDS 25 Nov 19:23:23 19:26:04 17° 64° (ENE) 19:28:47 437.485
DOVE 4 25 Nov 19:24:13 19:25:46 12° 61° (ENE) 19:27:17 437.250
Cubesat XI-IV 25 Nov 19:37:52 19:38:02 10° 274° (W) 19:38:12 437.490
AAUSAT CUBESAT 2 25 Nov 19:40:50 19:43:48 19° 65° (ENE) 19:46:46 437.432
AIST 1 25 Nov 19:41:56 19:46:14 55° 94° (E) 19:50:34
DX 1 25 Nov 19:49:13 19:51:20 13° 60° (ENE) 19:53:27 434.975-435.025
CANX-2 25 Nov 19:49:21 19:53:14 37° 70° (ENE) 19:57:10 2200.000
DELFI C3 25 Nov 19:50:38 19:51:31 11° 60° (ENE) 19:52:25 145.870
BEESAT 3 25 Nov 19:54:59 19:58:30 28° 115° (ESE) 20:02:04 437.485
COMPASS 1 25 Nov 19:55:02 19:58:39 29° 68° (ENE) 20:02:18 437.405
GOMX 1 25 Nov 20:01:04 20:05:22 35° 70° (ENE) 20:09:26 467.674
CINEMA 3 25 Nov 20:02:04 20:04:49 17° 64° (ENE) 20:07:32 145.822/145.860
BEESAT 2 25 Nov 20:09:45 20:13:31 36° 117° (ESE) 20:17:21 435.950
RS-15 25 Nov 20:10:52 20:19:53 28° 345° (NNW) 20:29:04 29.354- 29.394
HO-68 25 Nov 20:11:37 20:18:49 83° 71° (ENE) 20:26:03 435.675
ZACube-1 25 Nov 20:18:05 20:19:26 11° 61° (ENE) 20:20:48 437.345
CUTE 1.7 & AOD 2 25 Nov 20:23:42 20:27:54 82° 76° (ENE) 20:32:10 437.475
PCSat 25 Nov 20:24:35 20:30:00 77° 302° (WNW) 20:35:27 145.827
BRITE-PL 25 Nov 20:26:47 20:31:49 86° 77° (ENE) 20:36:28 437.365/2234.400
CUBESAT XI-V 25 Nov 20:33:44 20:36:57 19° 297° (WNW) 20:40:08 437.345
PHONESAT 2.4 25 Nov 20:36:10 20:38:06 14° 209° (SSW) 20:40:01 2401.200-2431.200
AIST 2 25 Nov 20:42:08 20:46:04 39° 117° (ESE) 20:50:05 435.215
AISAT 25 Nov 20:42:27 20:45:09 16° 61° (ENE) 20:47:50 437.250
UKube-1 25 Nov 20:47:39 20:51:50 48° 71° (ENE) 20:56:03 .
GONETS M04 25 Nov 20:50:15 20:58:18 42° 274° (W) 21:06:18
FUNcube-1 25 Nov 20:50:55 20:54:19 24° 67° (ENE) 20:57:41 145.935
STRAND 1 25 Nov 20:54:14 20:57:25 17° 301° (WNW) 21:00:35 437.568
SEEDS 25 Nov 20:57:30 21:01:33 48° 261° (W) 21:05:38 437.485
DOVE 4 25 Nov 20:58:22 21:03:00 82° 257° (WSW) 21:07:23 437.250
Oscar 11 25 Nov 20:59:10 21:03:26 68° 74° (ENE) 21:07:44 145.826/435.025
